| time (UTC) | temp C | wind direction | speed KPH | gust KPH | rain 1hr cm | rain 24hr cm | rain mn cm | humidity % | barometer mb |
| 20260510144047 | 17 | 31 | 1.6 | 3.2 | 0.00 | 0.00 | 0.00 | 81 | 1017.6 |
| 20260510143543 | 17 | 9 | 3.2 | 3.2 | 0.00 | 0.00 | 0.00 | 80 | 1017.9 |
| 20260510143039 | 17 | 49 | 1.6 | 3.2 | 0.00 | 0.00 | 0.00 | 79 | 1017.9 |
| 20260510142536 | 17 | 72 | 4.8 | 4.8 | 0.00 | 0.00 | 0.00 | 79 | 1017.6 |
| 20260510142033 | 17 | 20 | 0.0 | 1.6 | 0.00 | 0.00 | 0.00 | 81 | 1017.6 |
| 20260510141530 | 17 | 30 | 3.2 | 3.2 | 0.00 | 0.00 | 0.00 | 81 | 1017.8 |
| 20260510141027 | 17 | 12 | 0.0 | 0.0 | 0.00 | 0.00 | 0.00 | 82 | 1017.9 |
| 20260510140523 | 17 | 18 | 0.0 | 0.0 | 0.00 | 0.00 | 0.00 | 83 | 1017.6 |
| 20260510140023 | 17 | 18 | 1.6 | 1.6 | 0.00 | 0.00 | 0.00 | 84 | 1018.0 |
| 20260510135519 | 17 | 11 | 0.0 | 0.0 | 0.00 | 0.00 | 0.00 | 84 | 1018.2 |
| 20260510135015 | 17 | 8 | 0.0 | 0.0 | 0.00 | 0.00 | 0.00 | 84 | 1018.0 |
| 20260510134513 | 17 | 18 | 0.0 | 0.0 | 0.00 | 0.00 | 0.00 | 83 | 1018.0 |
| 20260510134009 | 17 | 21 | 0.0 | 1.6 | 0.00 | 0.00 | 0.00 | 84 | 1018.2 |
| 20260510133505 | 17 | 7 | 0.0 | 1.6 | 0.00 | 0.00 | 0.00 | 85 | 1018.7 |
| 20260510133001 | 17 | 8 | 0.0 | 0.0 | 0.00 | 0.00 | 0.00 | 85 | 1018.5 |
| 20260510132458 | 17 | 11 | 0.0 | 0.0 | 0.00 | 0.00 | 0.00 | 84 | 1018.4 |
| 20260510131955 | 17 | 9 | 0.0 | 0.0 | 0.00 | 0.00 | 0.00 | 83 | 1018.2 |
| 20260510131453 | 17 | 1 | 0.0 | 0.0 | 0.00 | 0.00 | 0.00 | 82 | 1018.0 |
| 20260510130950 | 17 | 9 | 0.0 | 0.0 | 0.00 | 0.00 | 0.00 | 82 | 1018.0 |
| 20260510130446 | 17 | 17 | 0.0 | 0.0 | 0.00 | 0.00 | 0.00 | 82 | 1017.8 |
| 20260510125943 | 17 | 10 | 0.0 | 0.0 | 0.00 | 0.00 | 0.00 | 82 | 1017.9 |
| 20260510125440 | 17 | 357 | 0.0 | 0.0 | 0.00 | 0.00 | 0.00 | 82 | 1017.9 |
| 20260510124936 | 17 | 10 | 0.0 | 0.0 | 0.00 | 0.00 | 0.00 | 82 | 1017.9 |
| 20260510124433 | 17 | 353 | 1.6 | 1.6 | 0.00 | 0.00 | 0.00 | 81 | 1017.7 |
| 20260510123930 | 17 | 15 | 0.0 | 0.0 | 0.00 | 0.00 | 0.00 | 80 | 1017.4 |
| 20260510123425 | 17 | 15 | 0.0 | 0.0 | 0.00 | 0.00 | 0.00 | 79 | 1017.0 |
| 20260510122921 | 18 | 17 | 0.0 | 0.0 | 0.00 | 0.00 | 0.00 | 78 | 1016.9 |
| 20260510122417 | 18 | 20 | 0.0 | 0.0 | 0.00 | 0.00 | 0.00 | 77 | 1016.8 |
| 20260510121913 | 18 | 20 | 0.0 | 0.0 | 0.00 | 0.00 | 0.00 | 77 | 1016.6 |
| 20260510121411 | 18 | 20 | 0.0 | 0.0 | 0.00 | 0.00 | 0.00 | 78 | 1016.5 |
| 20260510120908 | 17 | 29 | 1.6 | 1.6 | 0.00 | 0.00 | 0.00 | 77 | 1016.4 |
| 20260510120405 | 17 | 27 | 0.0 | 0.0 | 0.00 | 0.00 | 0.00 | 77 | 1016.2 |
| 20260510115901 | 17 | 22 | 0.0 | 0.0 | 0.00 | 0.00 | 0.00 | 78 | 1015.9 |
| 20260510115358 | 17 | 38 | 1.6 | 1.6 | 0.00 | 0.00 | 0.00 | 78 | 1015.9 |
| 20260510114854 | 17 | 34 | 0.0 | 0.0 | 0.00 | 0.00 | 0.00 | 78 | 1015.6 |
| 20260510114351 | 17 | 26 | 0.0 | 0.0 | 0.00 | 0.00 | 0.00 | 79 | 1015.7 |
| 20260510113851 | 17 | 23 | 0.0 | 0.0 | 0.00 | 0.00 | 0.00 | 80 | 1015.5 |
| 20260510113347 | 17 | 20 | 0.0 | 0.0 | 0.00 | 0.00 | 0.00 | 79 | 1015.4 |
| 20260510112844 | 17 | 20 | 0.0 | 0.0 | 0.00 | 0.00 | 0.00 | 79 | 1015.4 |
| 20260510112342 | 17 | 20 | 0.0 | 0.0 | 0.00 | 0.00 | 0.00 | 79 | 1015.3 |
| 20260510111837 | 17 | 21 | 0.0 | 0.0 | 0.00 | 0.00 | 0.00 | 78 | 1015.3 |
| 20260510111334 | 17 | 36 | 0.0 | 0.0 | 0.00 | 0.00 | 0.00 | 78 | 1015.2 |
| 20260510110834 | 17 | 22 | 0.0 | 0.0 | 0.00 | 0.00 | 0.00 | 77 | 1014.9 |
| 20260510110332 | 17 | 22 | 0.0 | 0.0 | 0.00 | 0.00 | 0.00 | 77 | 1014.8 |
| 20260510105827 | 17 | 23 | 0.0 | 0.0 | 0.00 | 0.00 | 0.00 | 77 | 1014.8 |
| 20260510105327 | 17 | 19 | 0.0 | 0.0 | 0.00 | 0.00 | 0.00 | 76 | 1014.8 |
| 20260510104824 | 17 | 37 | 1.6 | 1.6 | 0.00 | 0.00 | 0.00 | 76 | 1014.7 |
| 20260510104321 | 17 | 23 | 1.6 | 1.6 | 0.00 | 0.00 | 0.00 | 76 | 1014.7 |
| 20260510103817 | 17 | 20 | 0.0 | 0.0 | 0.00 | 0.00 | 0.00 | 75 | 1014.4 |
| 20260510103314 | 17 | 29 | 0.0 | 0.0 | 0.00 | 0.00 | 0.00 | 75 | 1014.5 |
| 20260510102809 | 18 | 22 | 0.0 | 0.0 | 0.00 | 0.00 | 0.00 | 74 | 1014.6 |
| 20260510102306 | 18 | 22 | 0.0 | 0.0 | 0.00 | 0.00 | 0.00 | 74 | 1014.7 |
| 20260510101803 | 18 | 24 | 0.0 | 0.0 | 0.00 | 0.00 | 0.00 | 73 | 1014.5 |
| 20260510101301 | 18 | 26 | 0.0 | 0.0 | 0.00 | 0.00 | 0.00 | 73 | 1014.4 |
| 20260510100756 | 18 | 31 | 1.6 | 1.6 | 0.00 | 0.00 | 0.00 | 72 | 1014.2 |
| 20260510100255 | 18 | 51 | 0.0 | 1.6 | 0.00 | 0.00 | 0.00 | 72 | 1014.3 |
| 20260510095750 | 18 | 28 | 1.6 | 1.6 | 0.00 | 0.00 | 0.00 | 71 | 1014.2 |
| 20260510095245 | 18 | 33 | 0.0 | 0.0 | 0.00 | 0.00 | 0.00 | 70 | 1014.2 |
| 20260510094744 | 18 | 57 | 3.2 | 4.8 | 0.00 | 0.00 | 0.00 | 70 | 1014.2 |
| 20260510094240 | 18 | 34 | 1.6 | 1.6 | 0.00 | 0.00 | 0.00 | 70 | 1014.1 |
| 20260510093736 | 18 | 20 | 1.6 | 1.6 | 0.00 | 0.00 | 0.00 | 70 | 1014.2 |
| 20260510093233 | 18 | 48 | 1.6 | 1.6 | 0.00 | 0.00 | 0.00 | 70 | 1014.3 |
| 20260510092729 | 18 | 28 | 1.6 | 1.6 | 0.00 | 0.00 | 0.00 | 70 | 1014.3 |
| 20260510092225 | 18 | 33 | 1.6 | 1.6 | 0.00 | 0.00 | 0.00 | 71 | 1014.2 |
| 20260510091721 | 18 | 17 | 0.0 | 0.0 | 0.00 | 0.00 | 0.00 | 72 | 1014.0 |
| 20260510091218 | 18 | 12 | 0.0 | 0.0 | 0.00 | 0.00 | 0.00 | 71 | 1013.9 |
| 20260510090714 | 18 | 14 | 0.0 | 0.0 | 0.00 | 0.00 | 0.00 | 71 | 1013.8 |
| 20260510090212 | 18 | 9 | 0.0 | 0.0 | 0.00 | 0.00 | 0.00 | 71 | 1013.9 |
| 20260510085706 | 18 | 16 | 0.0 | 0.0 | 0.00 | 0.00 | 0.00 | 70 | 1013.4 |
| 20260510085202 | 18 | 14 | 0.0 | 0.0 | 0.00 | 0.00 | 0.00 | 69 | 1013.3 |
| 20260510084658 | 19 | 20 | 0.0 | 0.0 | 0.00 | 0.00 | 0.00 | 69 | 1013.3 |
| 20260510084155 | 19 | 15 | 0.0 | 0.0 | 0.00 | 0.00 | 0.00 | 68 | 1013.2 |
| 20260510083652 | 19 | 15 | 0.0 | 0.0 | 0.00 | 0.00 | 0.00 | 68 | 1013.1 |
| 20260510083149 | 19 | 32 | 0.0 | 0.0 | 0.00 | 0.00 | 0.00 | 68 | 1013.0 |
| 20260510082645 | 19 | 15 | 0.0 | 0.0 | 0.00 | 0.00 | 0.00 | 68 | 1013.0 |
| 20260510082140 | 19 | 19 | 0.0 | 1.6 | 0.00 | 0.00 | 0.00 | 67 | 1012.5 |
| 20260510081635 | 19 | 16 | 0.0 | 0.0 | 0.00 | 0.00 | 0.00 | 67 | 1012.3 |
| 20260510081132 | 20 | 15 | 0.0 | 0.0 | 0.00 | 0.00 | 0.00 | 67 | 1012.3 |
| 20260510080631 | 20 | 30 | 1.6 | 1.6 | 0.00 | 0.00 | 0.00 | 66 | 1012.5 |
| 20260510080128 | 20 | 12 | 0.0 | 0.0 | 0.00 | 0.00 | 0.00 | 67 | 1012.3 |
| 20260510075625 | 20 | 11 | 0.0 | 0.0 | 0.00 | 0.00 | 0.00 | 67 | 1012.4 |
| 20260510075122 | 20 | 16 | 0.0 | 0.0 | 0.00 | 0.00 | 0.00 | 66 | 1012.4 |
| 20260510074619 | 20 | 25 | 0.0 | 1.6 | 0.00 | 0.00 | 0.00 | 66 | 1011.9 |
| 20260510074114 | 20 | 352 | 1.6 | 3.2 | 0.00 | 0.00 | 0.00 | 65 | 1011.9 |
| 20260510073605 | 20 | 292 | 3.2 | 6.4 | 0.00 | 0.00 | 0.00 | 65 | 1011.0 |
| 20260510073102 | 20 | 132 | 3.2 | 3.2 | 0.00 | 0.00 | 0.00 | 65 | 1010.7 |
| 20260510072559 | 20 | 177 | 3.2 | 4.8 | 0.00 | 0.00 | 0.00 | 65 | 1010.3 |
| 20260510072054 | 20 | 1 | 3.2 | 4.8 | 0.00 | 0.00 | 0.00 | 63 | 1011.2 |
| 20260510071551 | 20 | 146 | 4.8 | 4.8 | 0.00 | 0.00 | 0.00 | 61 | 1012.4 |
| 20260510071049 | 20 | 326 | 3.2 | 3.2 | 0.00 | 0.00 | 0.00 | 60 | 1012.9 |
| 20260510070545 | 20 | 328 | 3.2 | 4.8 | 0.00 | 0.00 | 0.00 | 60 | 1013.5 |
| 20260510070043 | 20 | 302 | 8.0 | 11.3 | 0.00 | 0.00 | 0.00 | 59 | 1013.2 |
| 20260510065538 | 20 | 307 | 3.2 | 4.8 | 0.00 | 0.00 | 0.00 | 60 | 1012.9 |
| 20260510065034 | 21 | 325 | 4.8 | 6.4 | 0.00 | 0.00 | 0.00 | 59 | 1013.0 |
| 20260510064531 | 21 | 310 | 3.2 | 4.8 | 0.00 | 0.00 | 0.00 | 59 | 1012.9 |
| 20260510064028 | 21 | 272 | 1.6 | 3.2 | 0.00 | 0.00 | 0.00 | 61 | 1013.0 |
| 20260510063525 | 20 | 261 | 4.8 | 4.8 | 0.00 | 0.00 | 0.00 | 62 | 1013.6 |
| 20260510063022 | 20 | 341 | 1.6 | 1.6 | 0.00 | 0.00 | 0.00 | 67 | 1014.1 |
| 20260510062518 | 20 | 354 | 0.0 | 1.6 | 0.00 | 0.00 | 0.00 | 67 | 1014.5 |
| 20260510062013 | 20 | 2 | 0.0 | 0.0 | 0.00 | 0.00 | 0.00 | 66 | 1014.5 |
| 20260510061510 | 20 | 16 | 0.0 | 0.0 | 0.00 | 0.00 | 0.00 | 65 | 1014.6 |
| 20260510061007 | 20 | 16 | 0.0 | 0.0 | 0.00 | 0.00 | 0.00 | 66 | 1014.6 |
| 20260510060503 | 20 | 298 | 1.6 | 3.2 | 0.00 | 0.00 | 0.00 | 64 | 1014.8 |
| 20260510055959 | 20 | 10 | 0.0 | 0.0 | 0.00 | 0.00 | 0.00 | 65 | 1014.8 |
| 20260510055455 | 20 | 20 | 0.0 | 0.0 | 0.00 | 0.00 | 0.00 | 65 | 1014.7 |
| 20260510054954 | 20 | 14 | 0.0 | 0.0 | 0.00 | 0.00 | 0.00 | 64 | 1014.7 |
| 20260510054448 | 21 | 20 | 0.0 | 0.0 | 0.00 | 0.00 | 0.00 | 63 | 1014.8 |
| 20260510053944 | 21 | 22 | 0.0 | 0.0 | 0.00 | 0.00 | 0.00 | 62 | 1014.9 |
| 20260510053439 | 21 | 20 | 0.0 | 0.0 | 0.00 | 0.00 | 0.00 | 62 | 1015.2 |
| 20260510052936 | 21 | 21 | 0.0 | 0.0 | 0.00 | 0.00 | 0.00 | 62 | 1015.3 |
| 20260510052432 | 21 | 21 | 0.0 | 0.0 | 0.00 | 0.00 | 0.00 | 62 | 1015.2 |
| 20260510051928 | 21 | 15 | 0.0 | 0.0 | 0.00 | 0.00 | 0.00 | 62 | 1015.2 |
| 20260510051425 | 21 | 14 | 0.0 | 0.0 | 0.00 | 0.00 | 0.00 | 62 | 1015.2 |
| 20260510050921 | 21 | 12 | 0.0 | 0.0 | 0.00 | 0.00 | 0.00 | 62 | 1015.0 |
| 20260510050418 | 21 | 10 | 0.0 | 0.0 | 0.00 | 0.00 | 0.00 | 62 | 1015.3 |
| 20260510045915 | 21 | 12 | 0.0 | 1.6 | 0.00 | 0.00 | 0.00 | 62 | 1015.2 |
| 20260510045412 | 21 | 353 | 0.0 | 1.6 | 0.00 | 0.00 | 0.00 | 61 | 1015.0 |
| 20260510044909 | 21 | 10 | 1.6 | 1.6 | 0.00 | 0.00 | 0.00 | 60 | 1014.8 |
| 20260510044406 | 21 | 20 | 0.0 | 0.0 | 0.00 | 0.00 | 0.00 | 59 | 1014.6 |
| 20260510043902 | 21 | 29 | 0.0 | 0.0 | 0.00 | 0.00 | 0.00 | 58 | 1014.3 |
| 20260510043358 | 21 | 29 | 0.0 | 0.0 | 0.00 | 0.00 | 0.00 | 58 | 1014.1 |
| 20260510042857 | 21 | 29 | 0.0 | 0.0 | 0.00 | 0.00 | 0.00 | 58 | 1013.8 |
| 20260510042352 | 21 | 29 | 0.0 | 0.0 | 0.00 | 0.00 | 0.00 | 57 | 1013.8 |
| 20260510041848 | 21 | 29 | 0.0 | 0.0 | 0.00 | 0.00 | 0.00 | 56 | 1013.5 |
| 20260510041346 | 22 | 29 | 0.0 | 0.0 | 0.00 | 0.00 | 0.00 | 56 | 1013.5 |
| 20260510040843 | 21 | 29 | 0.0 | 0.0 | 0.00 | 0.00 | 0.00 | 56 | 1013.3 |
| 20260510040340 | 22 | 29 | 0.0 | 0.0 | 0.00 | 0.00 | 0.00 | 56 | 1013.3 |
| 20260510035835 | 22 | 29 | 0.0 | 0.0 | 0.00 | 0.00 | 0.00 | 56 | 1013.1 |
| 20260510035331 | 22 | 29 | 0.0 | 0.0 | 0.00 | 0.00 | 0.00 | 55 | 1013.4 |
| 20260510034827 | 22 | 29 | 0.0 | 0.0 | 0.00 | 0.00 | 0.00 | 54 | 1013.1 |
| 20260510034325 | 22 | 27 | 0.0 | 0.0 | 0.00 | 0.00 | 0.00 | 53 | 1012.9 |
| 20260510033821 | 22 | 26 | 0.0 | 0.0 | 0.00 | 0.00 | 0.00 | 52 | 1013.2 |
| 20260510033318 | 22 | 39 | 1.6 | 1.6 | 0.00 | 0.00 | 0.00 | 52 | 1013.2 |
| 20260510032815 | 22 | 39 | 1.6 | 1.6 | 0.00 | 0.00 | 0.00 | 53 | 1013.1 |
| 20260510032312 | 22 | 25 | 0.0 | 0.0 | 0.00 | 0.00 | 0.00 | 54 | 1013.1 |
| 20260510031807 | 22 | 24 | 0.0 | 0.0 | 0.00 | 0.00 | 0.00 | 54 | 1013.4 |
| 20260510031303 | 22 | 24 | 0.0 | 0.0 | 0.00 | 0.00 | 0.00 | 55 | 1013.3 |
| 20260510030803 | 22 | 24 | 0.0 | 0.0 | 0.00 | 0.00 | 0.00 | 55 | 1013.4 |
| 20260510030300 | 22 | 24 | 0.0 | 0.0 | 0.00 | 0.00 | 0.00 | 54 | 1013.3 |
| 20260510025757 | 22 | 24 | 0.0 | 0.0 | 0.00 | 0.00 | 0.00 | 55 | 1013.3 |
| 20260510025255 | 22 | 24 | 0.0 | 0.0 | 0.00 | 0.00 | 0.00 | 53 | 1013.1 |
| 20260510024751 | 22 | 24 | 0.0 | 0.0 | 0.00 | 0.00 | 0.00 | 52 | 1013.0 |
| 20260510024249 | 22 | 24 | 0.0 | 0.0 | 0.00 | 0.00 | 0.00 | 52 | 1012.9 |
| 20260510023744 | 22 | 24 | 0.0 | 0.0 | 0.00 | 0.00 | 0.00 | 50 | 1012.7 |
| 20260510023241 | 22 | 24 | 0.0 | 0.0 | 0.00 | 0.00 | 0.00 | 49 | 1012.5 |
| 20260510022737 | 22 | 24 | 0.0 | 0.0 | 0.00 | 0.00 | 0.00 | 48 | 1012.2 |
| 20260510022237 | 22 | 25 | 0.0 | 0.0 | 0.00 | 0.00 | 0.00 | 46 | 1012.0 |
| 20260510021732 | 23 | 23 | 0.0 | 0.0 | 0.00 | 0.00 | 0.00 | 46 | 1011.8 |
| 20260510021230 | 23 | 26 | 0.0 | 0.0 | 0.00 | 0.00 | 0.00 | 45 | 1011.5 |
| 20260510020730 | 22 | 17 | 0.0 | 0.0 | 0.00 | 0.00 | 0.00 | 46 | 1011.6 |
| 20260510020225 | 22 | 17 | 0.0 | 0.0 | 0.00 | 0.00 | 0.00 | 47 | 1011.3 |
| 20260510015721 | 22 | 17 | 0.0 | 0.0 | 0.00 | 0.00 | 0.00 | 48 | 1011.3 |
| 20260510015218 | 22 | 17 | 0.0 | 0.0 | 0.00 | 0.00 | 0.00 | 47 | 1011.3 |
| 20260510014713 | 23 | 17 | 0.0 | 0.0 | 0.00 | 0.00 | 0.00 | 47 | 1011.2 |
| 20260510014211 | 23 | 17 | 0.0 | 0.0 | 0.00 | 0.00 | 0.00 | 46 | 1011.0 |
| 20260510013706 | 23 | 30 | 0.0 | 0.0 | 0.00 | 0.00 | 0.00 | 46 | 1011.0 |
| 20260510013202 | 24 | 41 | 1.6 | 1.6 | 0.00 | 0.00 | 0.00 | 44 | 1010.7 |
| 20260510012701 | 25 | 27 | 0.0 | 0.0 | 0.00 | 0.00 | 0.00 | 43 | 1010.7 |
| 20260510012157 | 25 | 41 | 0.0 | 1.6 | 0.00 | 0.00 | 0.00 | 42 | 1010.6 |
| 20260510011652 | 25 | 137 | 3.2 | 3.2 | 0.00 | 0.00 | 0.00 | 41 | 1010.5 |
| 20260510011148 | 25 | 57 | 1.6 | 1.6 | 0.00 | 0.00 | 0.00 | 42 | 1010.7 |
| 20260510010644 | 25 | 32 | 1.6 | 1.6 | 0.00 | 0.00 | 0.00 | 43 | 1010.6 |
| 20260510010141 | 25 | 67 | 3.2 | 3.2 | 0.00 | 0.00 | 0.00 | 44 | 1010.4 |
| 20260510005637 | 25 | 24 | 0.0 | 1.6 | 0.00 | 0.00 | 0.00 | 44 | 1010.4 |
| 20260510005134 | 25 | 33 | 0.0 | 0.0 | 0.00 | 0.00 | 0.00 | 44 | 1010.3 |
| 20260510004633 | 25 | 154 | 3.2 | 3.2 | 0.00 | 0.00 | 0.00 | 43 | 1010.5 |
| 20260510004131 | 26 | 134 | 1.6 | 3.2 | 0.00 | 0.00 | 0.00 | 43 | 1010.3 |
| 20260510003627 | 26 | 115 | 4.8 | 4.8 | 0.00 | 0.00 | 0.00 | 43 | 1010.3 |
| 20260510003123 | 26 | 138 | 3.2 | 3.2 | 0.00 | 0.00 | 0.00 | 43 | 1010.3 |
| 20260510002618 | 26 | 163 | 3.2 | 4.8 | 0.00 | 0.00 | 0.00 | 42 | 1010.2 |
| 20260510002115 | 26 | 148 | 3.2 | 3.2 | 0.00 | 0.00 | 0.00 | 41 | 1010.4 |
| 20260510001612 | 26 | 157 | 4.8 | 9.7 | 0.00 | 0.00 | 0.00 | 40 | 1010.2 |
| 20260510001111 | 26 | 165 | 8.0 | 9.7 | 0.00 | 0.00 | 0.00 | 39 | 1010.2 |
| 20260510000611 | 26 | 183 | 6.4 | 6.4 | 0.00 | 0.00 | 0.00 | 37 | 1010.2 |
| 20260510000108 | 26 | 135 | 8.0 | 11.3 | 0.00 | 0.00 | 0.00 | 35 | 1010.3 |
| 20260509235604 | 26 | 148 | 3.2 | 4.8 | 0.00 | 0.00 | 0.00 | 35 | 1010.2 |
| 20260509235101 | 26 | 98 | 4.8 | 6.4 | 0.00 | 0.00 | 0.00 | 34 | 1010.3 |
| 20260509234557 | 27 | 71 | 3.2 | 3.2 | 0.00 | 0.00 | 0.00 | 33 | 1010.3 |
| 20260509234055 | 27 | 165 | 1.6 | 3.2 | 0.00 | 0.00 | 0.00 | 33 | 1010.4 |
| 20260509233552 | 27 | 156 | 4.8 | 6.4 | 0.00 | 0.00 | 0.00 | 33 | 1010.4 |
| 20260509233050 | 27 | 140 | 4.8 | 4.8 | 0.00 | 0.00 | 0.00 | 32 | 1010.6 |
| 20260509232546 | 27 | 38 | 3.2 | 4.8 | 0.00 | 0.00 | 0.00 | 33 | 1010.4 |
| 20260509232043 | 27 | 150 | 6.4 | 9.7 | 0.00 | 0.00 | 0.00 | 32 | 1010.3 |
| 20260509231539 | 27 | 25 | 0.0 | 1.6 | 0.00 | 0.00 | 0.00 | 34 | 1010.5 |
| 20260509231037 | 27 | 196 | 3.2 | 4.8 | 0.00 | 0.00 | 0.00 | 34 | 1010.4 |
| 20260509230533 | 27 | 65 | 1.6 | 3.2 | 0.00 | 0.00 | 0.00 | 36 | 1010.4 |
| 20260509230031 | 27 | 150 | 8.0 | 11.3 | 0.00 | 0.00 | 0.00 | 34 | 1010.5 |
| 20260509225526 | 27 | 37 | 3.2 | 3.2 | 0.00 | 0.00 | 0.00 | 35 | 1010.6 |
| 20260509225022 | 27 | 116 | 1.6 | 3.2 | 0.00 | 0.00 | 0.00 | 36 | 1010.6 |
| 20260509224518 | 27 | 195 | 4.8 | 4.8 | 0.00 | 0.00 | 0.00 | 34 | 1010.6 |
| 20260509224014 | 27 | 35 | 0.0 | 1.6 | 0.00 | 0.00 | 0.00 | 35 | 1010.6 |
| 20260509223511 | 27 | 166 | 8.0 | 11.3 | 0.00 | 0.00 | 0.00 | 34 | 1010.5 |
| 20260509223010 | 28 | 137 | 6.4 | 6.4 | 0.00 | 0.00 | 0.00 | 35 | 1010.6 |
| 20260509222505 | 28 | 145 | 3.2 | 3.2 | 0.00 | 0.00 | 0.00 | 33 | 1010.6 |
| 20260509222001 | 27 | 11 | 0.0 | 0.0 | 0.00 | 0.00 | 0.00 | 30 | 1010.6 |
| 20260509221457 | 28 | 165 | 9.7 | 11.3 | 0.00 | 0.00 | 0.00 | 28 | 1010.6 |
| 20260509220953 | 28 | 138 | 4.8 | 4.8 | 0.00 | 0.00 | 0.00 | 33 | 1010.7 |
| 20260509220449 | 28 | 96 | 4.8 | 4.8 | 0.00 | 0.00 | 0.00 | 32 | 1010.6 |
| 20260509215945 | 28 | 159 | 3.2 | 4.8 | 0.00 | 0.00 | 0.00 | 33 | 1010.7 |
| 20260509215440 | 28 | 117 | 4.8 | 9.7 | 0.00 | 0.00 | 0.00 | 33 | 1011.0 |
| 20260509214938 | 28 | 357 | 1.6 | 3.2 | 0.00 | 0.00 | 0.00 | 36 | 1010.8 |
| 20260509214435 | 28 | 94 | 3.2 | 4.8 | 0.00 | 0.00 | 0.00 | 33 | 1011.0 |
| 20260509213932 | 27 | 45 | 1.6 | 3.2 | 0.00 | 0.00 | 0.00 | 30 | 1011.0 |
| 20260509213428 | 28 | 81 | 8.0 | 11.3 | 0.00 | 0.00 | 0.00 | 27 | 1011.2 |
| 20260509212926 | 28 | 186 | 6.4 | 9.7 | 0.00 | 0.00 | 0.00 | 30 | 1011.1 |
| 20260509212423 | 28 | 61 | 1.6 | 3.2 | 0.00 | 0.00 | 0.00 | 30 | 1011.1 |
| 20260509211919 | 28 | 93 | 3.2 | 3.2 | 0.00 | 0.00 | 0.00 | 31 | 1011.2 |
| 20260509211415 | 28 | 60 | 6.4 | 9.7 | 0.00 | 0.00 | 0.00 | 30 | 1011.1 |
| 20260509210911 | 28 | 27 | 3.2 | 3.2 | 0.00 | 0.00 | 0.00 | 32 | 1011.4 |
| 20260509210409 | 28 | 182 | 6.4 | 6.4 | 0.00 | 0.00 | 0.00 | 30 | 1011.3 |
| 20260509205904 | 28 | 34 | 0.0 | 1.6 | 0.00 | 0.00 | 0.00 | 32 | 1011.5 |
| 20260509205403 | 28 | 334 | 0.0 | 0.0 | 0.00 | 0.00 | 0.00 | 31 | 1011.6 |
| 20260509204900 | 28 | 130 | 3.2 | 3.2 | 0.00 | 0.00 | 0.00 | 29 | 1011.6 |
| 20260509204356 | 28 | 102 | 3.2 | 4.8 | 0.00 | 0.00 | 0.00 | 26 | 1011.6 |
| 20260509203853 | 28 | 173 | 3.2 | 6.4 | 0.00 | 0.00 | 0.00 | 30 | 1011.6 |
| 20260509203349 | 28 | 84 | 3.2 | 4.8 | 0.00 | 0.00 | 0.00 | 30 | 1011.6 |
| 20260509202846 | 28 | 346 | 0.0 | 0.0 | 0.00 | 0.00 | 0.00 | 31 | 1011.7 |
| 20260509202342 | 28 | 157 | 6.4 | 9.7 | 0.00 | 0.00 | 0.00 | 31 | 1011.6 |
| 20260509201837 | 28 | 114 | 1.6 | 3.2 | 0.00 | 0.00 | 0.00 | 34 | 1011.6 |
| 20260509201333 | 28 | 135 | 4.8 | 9.7 | 0.00 | 0.00 | 0.00 | 33 | 1011.7 |
| 20260509200830 | 28 | 24 | 3.2 | 4.8 | 0.00 | 0.00 | 0.00 | 34 | 1011.7 |
| 20260509200325 | 28 | 48 | 1.6 | 1.6 | 0.00 | 0.00 | 0.00 | 33 | 1011.9 |
| 20260509195822 | 28 | 26 | 1.6 | 1.6 | 0.00 | 0.00 | 0.00 | 31 | 1011.8 |
| 20260509195322 | 28 | 108 | 3.2 | 4.8 | 0.00 | 0.00 | 0.00 | 33 | 1012.1 |
| 20260509194816 | 27 | 53 | 3.2 | 3.2 | 0.00 | 0.00 | 0.00 | 31 | 1012.1 |
| 20260509194312 | 27 | 51 | 1.6 | 3.2 | 0.00 | 0.00 | 0.00 | 30 | 1012.2 |
| 20260509193809 | 28 | 66 | 4.8 | 6.4 | 0.00 | 0.00 | 0.00 | 29 | 1012.1 |
| 20260509193304 | 28 | 182 | 6.4 | 9.7 | 0.00 | 0.00 | 0.00 | 29 | 1012.2 |
| 20260509192800 | 28 | 131 | 3.2 | 4.8 | 0.00 | 0.00 | 0.00 | 34 | 1012.2 |
| 20260509192256 | 27 | 248 | 4.8 | 6.4 | 0.00 | 0.00 | 0.00 | 33 | 1012.0 |
| 20260509191751 | 27 | 31 | 0.0 | 1.6 | 0.00 | 0.00 | 0.00 | 33 | 1012.1 |
| 20260509191248 | 28 | 174 | 4.8 | 9.7 | 0.00 | 0.00 | 0.00 | 34 | 1012.1 |
| 20260509190743 | 28 | 184 | 6.4 | 9.7 | 0.00 | 0.00 | 0.00 | 33 | 1012.2 |
| 20260509190241 | 27 | 3 | 0.0 | 1.6 | 0.00 | 0.00 | 0.00 | 32 | 1012.2 |
| 20260509185738 | 27 | 115 | 6.4 | 6.4 | 0.00 | 0.00 | 0.00 | 34 | 1012.2 |
| 20260509185234 | 27 | 57 | 0.0 | 1.6 | 0.00 | 0.00 | 0.00 | 34 | 1012.1 |
| 20260509184732 | 27 | 50 | 0.0 | 1.6 | 0.00 | 0.00 | 0.00 | 38 | 1012.2 |
| 20260509184229 | 27 | 42 | 6.4 | 6.4 | 0.00 | 0.00 | 0.00 | 38 | 1012.2 |
| 20260509183725 | 27 | 121 | 4.8 | 6.4 | 0.00 | 0.00 | 0.00 | 39 | 1012.4 |
| 20260509183221 | 28 | 143 | 6.4 | 6.4 | 0.00 | 0.00 | 0.00 | 38 | 1012.3 |
| 20260509182716 | 27 | 344 | 1.6 | 1.6 | 0.00 | 0.00 | 0.00 | 42 | 1012.5 |
| 20260509182214 | 28 | 177 | 1.6 | 1.6 | 0.00 | 0.00 | 0.00 | 43 | 1012.6 |
| 20260509181712 | 28 | 35 | 3.2 | 3.2 | 0.00 | 0.00 | 0.00 | 40 | 1012.6 |
| 20260509181209 | 28 | 15 | 1.6 | 3.2 | 0.00 | 0.00 | 0.00 | 44 | 1012.5 |
| 20260509180706 | 27 | 357 | 0.0 | 0.0 | 0.00 | 0.00 | 0.00 | 46 | 1012.7 |
| 20260509180202 | 27 | 232 | 1.6 | 1.6 | 0.00 | 0.00 | 0.00 | 41 | 1012.6 |
| 20260509175659 | 27 | 2 | 0.0 | 0.0 | 0.00 | 0.00 | 0.00 | 45 | 1012.8 |
| 20260509175155 | 27 | 301 | 1.6 | 3.2 | 0.00 | 0.00 | 0.00 | 45 | 1012.9 |
| 20260509174651 | 27 | 291 | 1.6 | 3.2 | 0.00 | 0.00 | 0.00 | 45 | 1012.8 |
| 20260509174150 | 27 | 245 | 3.2 | 4.8 | 0.00 | 0.00 | 0.00 | 49 | 1012.9 |
| 20260509173647 | 26 | 320 | 3.2 | 3.2 | 0.00 | 0.00 | 0.00 | 52 | 1012.9 |
| 20260509173142 | 26 | 251 | 3.2 | 4.8 | 0.00 | 0.00 | 0.00 | 53 | 1013.3 |
| 20260509172639 | 26 | 323 | 1.6 | 1.6 | 0.00 | 0.00 | 0.00 | 53 | 1013.1 |
| 20260509172136 | 26 | 101 | 0.0 | 1.6 | 0.00 | 0.00 | 0.00 | 58 | 1013.1 |
| 20260509171631 | 25 | 31 | 1.6 | 1.6 | 0.00 | 0.00 | 0.00 | 57 | 1013.1 |
| 20260509171128 | 25 | 253 | 4.8 | 4.8 | 0.00 | 0.00 | 0.00 | 54 | 1013.1 |
| 20260509170624 | 26 | 38 | 1.6 | 1.6 | 0.00 | 0.00 | 0.00 | 58 | 1013.1 |
| 20260509170120 | 26 | 340 | 3.2 | 3.2 | 0.00 | 0.00 | 0.00 | 61 | 1013.1 |
| 20260509165619 | 25 | 327 | 0.0 | 1.6 | 0.00 | 0.00 | 0.00 | 60 | 1013.2 |
| 20260509165115 | 26 | 0 | 1.6 | 1.6 | 0.00 | 0.00 | 0.00 | 62 | 1013.1 |
| 20260509164611 | 25 | 247 | 3.2 | 4.8 | 0.00 | 0.00 | 0.00 | 57 | 1013.2 |
| 20260509164106 | 26 | 135 | 1.6 | 3.2 | 0.00 | 0.00 | 0.00 | 60 | 1013.3 |
| 20260509163605 | 25 | 29 | 0.0 | 0.0 | 0.00 | 0.00 | 0.00 | 58 | 1013.4 |
| 20260509163100 | 25 | 161 | 4.8 | 6.4 | 0.00 | 0.00 | 0.00 | 57 | 1013.4 |
| 20260509162557 | 25 | 62 | 0.0 | 0.0 | 0.00 | 0.00 | 0.00 | 61 | 1013.3 |
| 20260509162053 | 25 | 14 | 1.6 | 1.6 | 0.00 | 0.00 | 0.00 | 62 | 1013.4 |
| 20260509161545 | 24 | 9 | 3.2 | 3.2 | 0.00 | 0.00 | 0.00 | 64 | 1013.1 |
| 20260509161045 | 24 | 81 | 1.6 | 1.6 | 0.00 | 0.00 | 0.00 | 65 | 1013.3 |
| 20260509160541 | 24 | 50 | 1.6 | 1.6 | 0.00 | 0.00 | 0.00 | 68 | 1013.1 |
| 20260509160036 | 23 | 39 | 1.6 | 1.6 | 0.00 | 0.00 | 0.00 | 69 | 1012.8 |
| 20260509155532 | 23 | 66 | 3.2 | 3.2 | 0.00 | 0.00 | 0.00 | 67 | 1013.0 |
| 20260509155029 | 23 | 297 | 0.0 | 1.6 | 0.00 | 0.00 | 0.00 | 70 | 1012.9 |
| 20260509154525 | 22 | 305 | 3.2 | 4.8 | 0.00 | 0.00 | 0.00 | 70 | 1012.8 |
| 20260509154023 | 22 | 12 | 1.6 | 1.6 | 0.00 | 0.00 | 0.00 | 72 | 1012.6 |
| 20260509153520 | 22 | 58 | 0.0 | 1.6 | 0.00 | 0.00 | 0.00 | 72 | 1012.9 |
| 20260509153016 | 22 | 56 | 0.0 | 0.0 | 0.00 | 0.00 | 0.00 | 74 | 1012.9 |
| 20260509152512 | 21 | 137 | 1.6 | 3.2 | 0.00 | 0.00 | 0.00 | 75 | 1012.9 |
| 20260509152009 | 21 | 35 | 0.0 | 1.6 | 0.00 | 0.00 | 0.00 | 78 | 1013.0 |
| 20260509151506 | 21 | 48 | 0.0 | 0.0 | 0.00 | 0.00 | 0.00 | 77 | 1012.9 |
| 20260509151004 | 20 | 40 | 0.0 | 0.0 | 0.00 | 0.00 | 0.00 | 78 | 1012.9 |
| 20260509150501 | 20 | 18 | 0.0 | 0.0 | 0.00 | 0.00 | 0.00 | 82 | 1013.0 |
| 20260509145959 | 20 | 282 | 1.6 | 3.2 | 0.00 | 0.00 | 0.00 | 81 | 1012.9 |
| 20260509145454 | 20 | 232 | 1.6 | 3.2 | 0.00 | 0.00 | 0.00 | 81 | 1012.9 |
| 20260509144949 | 19 | 344 | 1.6 | 1.6 | 0.00 | 0.00 | 0.00 | 83 | 1013.1 |
| 20260509144447 | 19 | 335 | 1.6 | 3.2 | 0.00 | 0.00 | 0.00 | 86 | 1013.0 |